Overview Statistics Trail Chart Weather Telemetry Raw packets
 

This is the latest recevied weather packets stored in our database for station/object HP1MRA-15. If no packets are shown the sender has not sent any weather packets the latest 10 day(s).

<< 1 2 3 4 5 >>
Time Temp. Humidity Pressure Rain* Wind** Luminosity Snow
1788654063 30.56° C 67% 1000.3 hPa 0 mm - - -
1788653762 30° C 67% 1000.4 hPa 0 mm - - -
1788653462 30.56° C 65% 1000.4 hPa 0 mm - - -
1788653162 30.56° C 65% 1000.2 hPa 0 mm - - -
1788653162 30.56° C 65% 1000.2 hPa 0 mm - - -
1788652884 30.56° C 62% 999.9 hPa 0 mm - - -
1788652558 30.56° C 62% 999.7 hPa 0 mm - - -
1788652101 30.56° C 62% 999.3 hPa 0 mm - - -
1788651800 - - 999.4 hPa 0 mm - - -
1788651499 31.11° C 63% 999.3 hPa 0 mm - - -
1788651200 31.11° C 62% 999.2 hPa 0 mm - - -
1788650899 31.11° C 62% 999 hPa 0 mm - - -
1788650598 31.67° C 62% 998.9 hPa 0 mm - - -
1788650297 31.67° C 62% 998.7 hPa 0 mm - - -
1788649995 - - 998.5 hPa 0 mm - - -
1788649570 32.22° C 61% 998.3 hPa 0 mm - - -
1788649081 32.22° C 61% 998.1 hPa 0 mm - - -
1788648781 32.22° C 61% 998.1 hPa 0 mm - - -
1788648481 32.78° C 62% 998.1 hPa 0 mm - - -
1788648181 32.78° C 61% 998.2 hPa 0 mm - - -
1788647879 32.78° C 61% 998.1 hPa 0 mm - - -
1788647581 33.33° C 61% 998 hPa 0 mm - - -
1788647281 33.33° C 61% 997.8 hPa 0 mm - - -
1788646980 33.33° C 61% 997.8 hPa 0 mm - - -
1788646679 33.89° C 60% 997.8 hPa 0 mm - - -

* Rain latest hour (hover to see other rain measurements)
** Current wind speed in m/s (hover to see current wind gust speed)